CCA3984 ZGSD-ZBAA

Flight info

Callsign CCA3984
Flight time 2h 57m
Altitude 33100
Route GUBLO W21 TEPID W22 YIN A461 BUBDA W56 DUGEB
Aircraft A20N/M-SDE2E3FGILRWXY/LB2

Departure

Time 2026-05-08 11:59
Airport Zhuhai Jinwan Airport (ZGSD)

Arrival

Time 2026-05-08 14:57
Airport Beijing Capital International Airport (ZBAA)
Time Latitude Longitude Altitude Speed Heading
2026-05-08 11:17 22.00852 113.37206 37 ft 0 kts 44°
2026-05-08 11:47 22.00851 113.37204 37 ft 1 kts 45°
2026-05-08 11:47 22.00841 113.37193 37 ft 2 kts 44°
2026-05-08 11:48 22.00830 113.37182 37 ft 2 kts 44°
2026-05-08 11:48 22.00820 113.37171 37 ft 2 kts 44°
2026-05-08 11:48 22.00810 113.37159 37 ft 2 kts 70°
2026-05-08 11:48 22.00808 113.37144 38 ft 2 kts 101°
2026-05-08 11:49 22.00813 113.37131 38 ft 0 kts 130°
2026-05-08 11:49 22.00817 113.37126 38 ft 1 kts 135°
2026-05-08 11:49 22.00819 113.37125 38 ft 0 kts 134°
2026-05-08 11:51 22.00811 113.37133 38 ft 8 kts 135°
2026-05-08 11:51 22.00749 113.37200 37 ft 13 kts 133°
2026-05-08 11:51 22.00682 113.37273 37 ft 13 kts 134°
2026-05-08 11:51 22.00622 113.37336 36 ft 7 kts 147°
2026-05-08 11:52 22.00572 113.37305 35 ft 10 kts 227°
2026-05-08 11:52 22.00517 113.37247 34 ft 12 kts 224°
2026-05-08 11:52 22.00453 113.37181 33 ft 13 kts 225°
2026-05-08 11:52 22.00386 113.37108 34 ft 13 kts 224°
2026-05-08 11:53 22.00315 113.37034 32 ft 14 kts 225°
2026-05-08 11:53 22.00245 113.36958 34 ft 13 kts 226°
2026-05-08 11:53 22.00180 113.36889 35 ft 13 kts 225°
2026-05-08 11:53 22.00108 113.36814 31 ft 16 kts 224°
2026-05-08 11:54 22.00017 113.36716 23 ft 21 kts 225°
2026-05-08 11:54 21.99906 113.36598 20 ft 22 kts 224°
2026-05-08 11:54 21.99799 113.36485 20 ft 20 kts 224°
2026-05-08 11:54 21.99694 113.36374 18 ft 21 kts 225°
2026-05-08 11:55 21.99596 113.36269 18 ft 17 kts 224°
2026-05-08 11:55 21.99511 113.36201 18 ft 13 kts 172°
2026-05-08 11:55 21.99479 113.36224 18 ft 0 kts 134°
2026-05-08 11:58 21.99473 113.36231 18 ft 4 kts 134°
2026-05-08 11:58 21.99431 113.36278 18 ft 12 kts 134°
2026-05-08 11:58 21.99425 113.36339 18 ft 4 kts 46°
2026-05-08 11:59 21.99613 113.36540 18 ft 73 kts 45°
2026-05-08 11:59 22.00137 113.37094 26 ft 135 kts 44°
2026-05-08 11:59 22.00921 113.37937 166 ft 172 kts 46°
2026-05-08 11:59 22.01768 113.38861 706 ft 175 kts 46°
2026-05-08 12:00 22.02634 113.39793 1389 ft 176 kts 46°
2026-05-08 12:00 22.03489 113.40706 2027 ft 179 kts 46°
2026-05-08 12:00 22.04425 113.41707 2475 ft 196 kts 45°
2026-05-08 12:00 22.05425 113.42777 2900 ft 212 kts 45°
2026-05-08 12:01 22.06552 113.43969 3236 ft 237 kts 43°
2026-05-08 12:01 22.07812 113.45186 3717 ft 255 kts 43°
2026-05-08 12:01 22.09174 113.46488 4325 ft 266 kts 42°
2026-05-08 12:01 22.10572 113.47819 4805 ft 270 kts 41°
2026-05-08 12:02 22.11780 113.48971 5364 ft 276 kts 41°
2026-05-08 12:02 22.13205 113.50337 6283 ft 275 kts 41°
2026-05-08 12:02 22.14647 113.51717 7038 ft 279 kts 41°
2026-05-08 12:02 22.16108 113.53127 7741 ft 284 kts 41°
2026-05-08 12:03 22.17581 113.54541 8467 ft 288 kts 42°
2026-05-08 12:03 22.19089 113.55988 9153 ft 292 kts 41°
2026-05-08 12:03 22.20627 113.57463 9813 ft 296 kts 40°
2026-05-08 12:03 22.22171 113.58946 10416 ft 302 kts 40°
2026-05-08 12:04 22.23771 113.60480 10745 ft 318 kts 40°
2026-05-08 12:04 22.25513 113.62058 11029 ft 334 kts 38°
2026-05-08 12:04 22.27367 113.63655 11472 ft 344 kts 37°
2026-05-08 12:04 22.29254 113.65272 12063 ft 348 kts 37°
2026-05-08 12:05 22.31159 113.66905 12655 ft 351 kts 37°
2026-05-08 12:05 22.33088 113.68560 13228 ft 355 kts 37°
2026-05-08 12:05 22.35035 113.70232 13782 ft 359 kts 37°
2026-05-08 12:05 22.36994 113.71916 14346 ft 362 kts 37°
2026-05-08 12:06 22.38967 113.73612 14903 ft 364 kts 37°
2026-05-08 12:06 22.40951 113.75319 15443 ft 367 kts 37°
2026-05-08 12:06 22.42940 113.77030 15957 ft 369 kts 37°
2026-05-08 12:06 22.44941 113.78820 16470 ft 372 kts 39°
2026-05-08 12:07 22.46901 113.80660 16961 ft 375 kts 39°
2026-05-08 12:07 22.48872 113.82526 17436 ft 378 kts 39°
2026-05-08 12:07 22.50838 113.84390 17911 ft 381 kts 39°
2026-05-08 12:07 22.52851 113.86296 18402 ft 383 kts 39°
2026-05-08 12:08 22.54854 113.88193 18905 ft 384 kts 39°
2026-05-08 12:08 22.56860 113.90092 19403 ft 385 kts 39°
2026-05-08 12:08 22.58871 113.91998 19898 ft 387 kts 39°
2026-05-08 12:08 22.60893 113.93912 20372 ft 388 kts 39°
2026-05-08 12:09 22.62945 113.95857 20845 ft 391 kts 38°
2026-05-08 12:09 22.65027 113.97779 21294 ft 392 kts 34°
2026-05-08 12:09 22.67422 113.99113 21708 ft 388 kts 14°
2026-05-08 12:09 22.70081 113.99509 22168 ft 385 kts 356°
2026-05-08 12:10 22.72689 113.98981 22613 ft 382 kts 338°
2026-05-08 12:10 22.75013 113.97599 23046 ft 382 kts 321°
2026-05-08 12:10 22.76831 113.95550 23459 ft 383 kts 308°
2026-05-08 12:10 22.78466 113.93280 23909 ft 384 kts 308°
2026-05-08 12:11 22.80118 113.90975 24293 ft 388 kts 307°
2026-05-08 12:11 22.81775 113.88669 24677 ft 390 kts 307°
2026-05-08 12:11 22.83441 113.86353 25075 ft 392 kts 307°
2026-05-08 12:11 22.85119 113.84023 25471 ft 394 kts 307°
2026-05-08 12:12 22.86814 113.81667 25830 ft 396 kts 307°
2026-05-08 12:12 22.88523 113.79295 26211 ft 398 kts 307°
2026-05-08 12:12 22.90299 113.76999 26554 ft 401 kts 315°
2026-05-08 12:12 22.92595 113.75266 26852 ft 409 kts 332°
2026-05-08 12:13 22.95316 113.74336 27178 ft 417 kts 348°
2026-05-08 12:13 22.98276 113.74187 27492 ft 423 kts 356°
2026-05-08 12:13 23.01214 113.74205 27768 ft 426 kts 356°
2026-05-08 12:13 23.04212 113.74227 28039 ft 429 kts 356°
2026-05-08 12:14 23.07210 113.74244 28304 ft 432 kts 356°
2026-05-08 12:14 23.10201 113.74256 28562 ft 434 kts 356°
2026-05-08 12:14 23.13255 113.74266 28837 ft 437 kts 356°
2026-05-08 12:14 23.16305 113.74277 29133 ft 438 kts 355°
2026-05-08 12:15 23.19349 113.74287 29436 ft 439 kts 355°
2026-05-08 12:15 23.22416 113.74277 29770 ft 438 kts 353°
2026-05-08 12:15 23.25416 113.73830 30162 ft 429 kts 341°
2026-05-08 12:15 23.28218 113.72783 30576 ft 420 kts 330°
2026-05-08 12:16 23.30731 113.71231 30979 ft 412 kts 321°
2026-05-08 12:16 23.32926 113.69233 31328 ft 407 kts 311°
2026-05-08 12:16 23.34737 113.66894 31636 ft 403 kts 304°
2026-05-08 12:16 23.36391 113.64429 31932 ft 403 kts 303°
2026-05-08 12:17 23.38007 113.61982 32191 ft 404 kts 303°
2026-05-08 12:17 23.39645 113.59497 32473 ft 404 kts 303°
2026-05-08 12:17 23.41281 113.57021 32773 ft 404 kts 303°
2026-05-08 12:17 23.42921 113.54542 33029 ft 405 kts 303°
2026-05-08 12:18 23.46235 113.49538 33065 ft 406 kts 303°
2026-05-08 12:18 23.49935 113.44919 33065 ft 410 kts 315°
2026-05-08 12:19 23.54728 113.41440 33065 ft 419 kts 329°
2026-05-08 12:19 23.60322 113.39434 33068 ft 429 kts 344°
2026-05-08 12:20 23.66349 113.39097 33078 ft 438 kts 356°
2026-05-08 12:20 23.72442 113.39367 33079 ft 438 kts 356°
2026-05-08 12:21 23.78590 113.39661 33079 ft 439 kts 356°
2026-05-08 12:21 23.84674 113.39946 33095 ft 439 kts 356°
2026-05-08 12:22 23.90812 113.40230 33105 ft 439 kts 356°
2026-05-08 12:22 23.96908 113.40511 33116 ft 439 kts 356°
2026-05-08 12:23 24.03002 113.40793 33122 ft 437 kts 356°
2026-05-08 12:23 24.09108 113.41074 33118 ft 437 kts 355°
2026-05-08 12:24 24.15206 113.41354 33117 ft 437 kts 355°
2026-05-08 12:24 24.21275 113.41618 33119 ft 437 kts 355°
2026-05-08 12:25 24.27349 113.41812 33122 ft 437 kts 355°
2026-05-08 12:25 24.33443 113.42009 33124 ft 437 kts 355°
2026-05-08 12:26 24.39548 113.42188 33155 ft 435 kts 354°
2026-05-08 12:26 24.45579 113.42358 33162 ft 435 kts 355°
2026-05-08 12:27 24.51651 113.42559 33171 ft 435 kts 355°
2026-05-08 12:27 24.57737 113.42759 33173 ft 435 kts 354°
2026-05-08 12:28 24.63799 113.42956 33166 ft 436 kts 355°
2026-05-08 12:28 24.69883 113.43147 33168 ft 435 kts 354°
2026-05-08 12:29 24.75956 113.43310 33161 ft 435 kts 354°
2026-05-08 12:29 24.82027 113.43476 33167 ft 436 kts 354°
2026-05-08 12:30 24.88102 113.43641 33170 ft 435 kts 354°
2026-05-08 12:30 24.94170 113.43806 33177 ft 435 kts 354°
2026-05-08 12:31 25.00200 113.43970 33183 ft 435 kts 354°
2026-05-08 12:31 25.06271 113.44135 33194 ft 436 kts 354°
2026-05-08 12:32 25.12328 113.44301 33198 ft 436 kts 354°
2026-05-08 12:32 25.18379 113.44466 33201 ft 435 kts 354°
2026-05-08 12:33 25.24441 113.44630 33201 ft 435 kts 354°
2026-05-08 12:33 25.30522 113.44798 33207 ft 435 kts 354°
2026-05-08 12:34 25.36559 113.44962 33207 ft 435 kts 354°
2026-05-08 12:34 25.42647 113.45129 33212 ft 435 kts 354°
2026-05-08 12:35 25.48700 113.45298 33216 ft 435 kts 354°
2026-05-08 12:35 25.54782 113.45473 33222 ft 436 kts 354°
2026-05-08 12:36 25.60864 113.45649 33225 ft 435 kts 353°
2026-05-08 12:36 25.66909 113.45821 33225 ft 435 kts 354°
2026-05-08 12:37 25.73003 113.45994 33231 ft 435 kts 353°
2026-05-08 12:37 25.79035 113.46164 33234 ft 435 kts 353°
2026-05-08 12:38 25.85105 113.46337 33229 ft 435 kts 353°
2026-05-08 12:38 25.91116 113.46242 33226 ft 432 kts 350°
2026-05-08 12:39 25.97119 113.46010 33225 ft 432 kts 350°
2026-05-08 12:39 26.03138 113.45775 33232 ft 431 kts 350°
2026-05-08 12:40 26.09160 113.45543 33232 ft 430 kts 350°
2026-05-08 12:40 26.15115 113.45315 33234 ft 430 kts 350°
2026-05-08 12:41 26.21144 113.45084 33236 ft 430 kts 349°
2026-05-08 12:41 26.27156 113.44852 33236 ft 430 kts 349°
2026-05-08 12:42 26.33176 113.44619 33240 ft 432 kts 349°
2026-05-08 12:42 26.36194 113.44501 33415 ft 433 kts 349°
2026-05-08 12:42 26.39169 113.44388 33795 ft 431 kts 349°
2026-05-08 12:43 26.42178 113.44274 34191 ft 428 kts 349°
2026-05-08 12:43 26.45123 113.44160 34546 ft 425 kts 349°
2026-05-08 12:43 26.48083 113.44046 34875 ft 424 kts 349°
2026-05-08 12:43 26.51043 113.43932 35165 ft 422 kts 349°
2026-05-08 12:44 26.56938 113.43707 35231 ft 422 kts 349°
2026-05-08 12:44 26.62819 113.43484 35236 ft 422 kts 349°
2026-05-08 12:45 26.68716 113.43256 35235 ft 423 kts 349°
2026-05-08 12:45 26.74572 113.43033 35237 ft 423 kts 349°
2026-05-08 12:46 26.80461 113.42806 35242 ft 421 kts 349°
2026-05-08 12:46 26.86309 113.42580 35241 ft 422 kts 349°
2026-05-08 12:47 26.92211 113.42353 35244 ft 422 kts 349°
2026-05-08 12:47 26.98064 113.42126 35245 ft 422 kts 349°
2026-05-08 12:48 27.03946 113.41899 35243 ft 422 kts 349°
2026-05-08 12:48 27.09789 113.41673 35245 ft 421 kts 349°
2026-05-08 12:49 27.15652 113.41446 35246 ft 420 kts 348°
2026-05-08 12:49 27.21510 113.41218 35246 ft 420 kts 348°
2026-05-08 12:50 27.27336 113.40990 35247 ft 419 kts 348°
2026-05-08 12:50 27.33187 113.40798 35246 ft 421 kts 350°
2026-05-08 12:51 27.41997 113.40953 35246 ft 423 kts 351°
2026-05-08 12:52 27.47852 113.41072 35249 ft 422 kts 351°
2026-05-08 12:52 27.56686 113.41245 35250 ft 422 kts 351°
2026-05-08 12:53 27.62557 113.41360 35250 ft 421 kts 351°
2026-05-08 12:53 27.68431 113.41673 35250 ft 426 kts 354°
2026-05-08 12:54 27.74349 113.42203 35250 ft 425 kts 354°
2026-05-08 12:54 27.80262 113.42734 35248 ft 424 kts 354°
2026-05-08 12:55 27.86122 113.43254 35250 ft 424 kts 354°
2026-05-08 12:55 27.92011 113.43774 35249 ft 424 kts 354°
2026-05-08 12:56 27.97907 113.44290 35251 ft 423 kts 354°
2026-05-08 12:56 28.03798 113.44803 35251 ft 424 kts 353°
2026-05-08 12:57 28.09677 113.45315 35252 ft 422 kts 353°
2026-05-08 12:57 28.15517 113.45733 35251 ft 422 kts 352°
2026-05-08 12:58 28.21397 113.46142 35253 ft 422 kts 352°
2026-05-08 12:58 28.27268 113.46564 35251 ft 423 kts 352°
2026-05-08 12:59 28.33157 113.46987 35247 ft 423 kts 352°
2026-05-08 12:59 28.39061 113.47413 35245 ft 423 kts 352°
2026-05-08 13:00 28.44973 113.47836 35245 ft 423 kts 352°
2026-05-08 13:00 28.50849 113.48257 35246 ft 423 kts 352°
2026-05-08 13:01 28.56743 113.48677 35243 ft 424 kts 352°
2026-05-08 13:01 28.62651 113.49101 35240 ft 424 kts 352°
2026-05-08 13:02 28.68571 113.49522 35239 ft 423 kts 352°
2026-05-08 13:02 28.74478 113.49946 35240 ft 424 kts 352°
2026-05-08 13:03 28.80389 113.50371 35239 ft 424 kts 352°
2026-05-08 13:03 28.86314 113.50798 35243 ft 424 kts 352°
2026-05-08 13:04 28.92235 113.51224 35240 ft 424 kts 352°
2026-05-08 13:04 28.98157 113.51650 35240 ft 424 kts 352°
2026-05-08 13:05 29.04043 113.52074 35245 ft 424 kts 351°
2026-05-08 13:05 29.09964 113.52500 35244 ft 424 kts 351°
2026-05-08 13:06 29.15882 113.52927 35244 ft 425 kts 351°
2026-05-08 13:06 29.21796 113.53355 35247 ft 423 kts 351°
2026-05-08 13:07 29.27706 113.53779 35247 ft 425 kts 352°
2026-05-08 13:07 29.33609 113.54268 35243 ft 426 kts 352°
2026-05-08 13:08 29.39566 113.54792 35238 ft 426 kts 352°
2026-05-08 13:08 29.45456 113.55308 35248 ft 425 kts 352°
2026-05-08 13:09 29.48429 113.55565 35366 ft 426 kts 352°
2026-05-08 13:09 29.51378 113.55823 35594 ft 426 kts 352°
2026-05-08 13:09 29.54346 113.56081 35840 ft 425 kts 352°
2026-05-08 13:09 29.57328 113.56342 36044 ft 425 kts 352°
2026-05-08 13:10 29.60271 113.56596 36259 ft 425 kts 352°
2026-05-08 13:10 29.63216 113.56853 36420 ft 426 kts 352°
2026-05-08 13:10 29.66202 113.57112 36598 ft 426 kts 352°
2026-05-08 13:10 29.69151 113.57369 36797 ft 425 kts 352°
2026-05-08 13:11 29.72137 113.57629 37016 ft 424 kts 352°
2026-05-08 13:11 29.75082 113.57886 37171 ft 424 kts 351°
2026-05-08 13:11 29.80985 113.58398 37222 ft 424 kts 351°
2026-05-08 13:12 29.86869 113.58930 37220 ft 427 kts 353°
2026-05-08 13:12 29.92857 113.60004 37224 ft 440 kts 360°
2026-05-08 13:13 29.98876 113.61923 37222 ft 453 kts
2026-05-08 13:13 30.04813 113.64649 37219 ft 461 kts 11°
2026-05-08 13:14 30.10706 113.67615 37222 ft 461 kts 11°
2026-05-08 13:14 30.16559 113.70561 37220 ft 459 kts 11°
2026-05-08 13:15 30.22418 113.73492 37220 ft 460 kts 11°
2026-05-08 13:15 30.28343 113.76460 37221 ft 460 kts 11°
2026-05-08 13:16 30.34194 113.79394 37217 ft 460 kts 11°
2026-05-08 13:16 30.40103 113.82362 37220 ft 460 kts 11°
2026-05-08 13:17 30.46030 113.85344 37218 ft 459 kts 11°
2026-05-08 13:17 30.51896 113.88295 37220 ft 461 kts 11°
2026-05-08 13:18 30.57818 113.91279 37219 ft 462 kts 11°
2026-05-08 13:18 30.63714 113.94257 37221 ft 462 kts 11°
2026-05-08 13:19 30.69643 113.97138 37221 ft 461 kts 12°
2026-05-08 13:19 30.75511 114.00349 37222 ft 465 kts 14°
2026-05-08 13:20 30.81317 114.03573 37224 ft 462 kts 13°
2026-05-08 13:20 30.87182 114.06735 37224 ft 462 kts 13°
2026-05-08 13:21 30.93108 114.09935 37226 ft 466 kts 13°
2026-05-08 13:21 30.98956 114.13111 37224 ft 464 kts 13°
2026-05-08 13:22 31.04823 114.16301 37227 ft 465 kts 13°
2026-05-08 13:22 31.10711 114.19503 37226 ft 464 kts 13°
2026-05-08 13:23 31.16574 114.22691 37219 ft 465 kts 13°
2026-05-08 13:23 31.22483 114.25912 37231 ft 464 kts 13°
2026-05-08 13:24 31.28354 114.29102 37224 ft 461 kts 12°
2026-05-08 13:24 31.34311 114.31608 37225 ft 449 kts
2026-05-08 13:25 31.40347 114.33023 37223 ft 434 kts 354°
2026-05-08 13:25 31.46313 114.33503 37227 ft 424 kts 349°
2026-05-08 13:26 31.52229 114.33665 37227 ft 424 kts 349°
2026-05-08 13:26 31.58118 114.33835 37227 ft 423 kts 349°
2026-05-08 13:27 31.64034 114.34012 37230 ft 425 kts 349°
2026-05-08 13:27 31.69957 114.34193 37229 ft 423 kts 349°
2026-05-08 13:28 31.75892 114.34375 37227 ft 424 kts 349°
2026-05-08 13:28 31.81777 114.34553 37230 ft 423 kts 349°
2026-05-08 13:29 31.87718 114.34734 37223 ft 424 kts 349°
2026-05-08 13:29 31.93604 114.34914 37226 ft 423 kts 349°
2026-05-08 13:30 31.99518 114.35091 37228 ft 424 kts 349°
2026-05-08 13:30 32.05447 114.35269 37225 ft 425 kts 349°
2026-05-08 13:31 32.11377 114.35447 37228 ft 425 kts 349°
2026-05-08 13:31 32.17304 114.35626 37221 ft 425 kts 350°
2026-05-08 13:32 32.23205 114.35806 37221 ft 424 kts 350°
2026-05-08 13:32 32.29174 114.36180 37230 ft 430 kts 353°
2026-05-08 13:33 32.35151 114.36730 37233 ft 429 kts 353°
2026-05-08 13:33 32.41104 114.37281 37224 ft 428 kts 353°
2026-05-08 13:34 32.47108 114.37828 37224 ft 430 kts 353°
2026-05-08 13:34 32.53060 114.38374 37223 ft 429 kts 353°
2026-05-08 13:35 32.59037 114.38923 37229 ft 428 kts 354°
2026-05-08 13:35 32.64992 114.39488 37226 ft 427 kts 353°
2026-05-08 13:36 32.70952 114.40025 37224 ft 429 kts 354°
2026-05-08 13:36 32.76924 114.40581 37227 ft 430 kts 354°
2026-05-08 13:37 32.82876 114.41138 37224 ft 428 kts 354°
2026-05-08 13:37 32.88827 114.41694 37224 ft 429 kts 354°
2026-05-08 13:38 32.94792 114.42250 37233 ft 428 kts 354°
2026-05-08 13:38 33.00744 114.42808 37222 ft 428 kts 354°
2026-05-08 13:39 33.06695 114.43364 37226 ft 429 kts 354°
2026-05-08 13:39 33.12655 114.43924 37235 ft 428 kts 354°
2026-05-08 13:40 33.18576 114.44480 37232 ft 427 kts 354°
2026-05-08 13:40 33.24518 114.45037 37051 ft 429 kts 355°
2026-05-08 13:41 33.27481 114.45312 36813 ft 429 kts 355°
2026-05-08 13:41 33.30483 114.45595 36569 ft 429 kts 355°
2026-05-08 13:41 33.33453 114.45874 36324 ft 430 kts 355°
2026-05-08 13:41 33.36454 114.46156 36077 ft 430 kts 355°
2026-05-08 13:42 33.39429 114.46437 35834 ft 431 kts 356°
2026-05-08 13:42 33.42418 114.46718 35592 ft 431 kts 356°
2026-05-08 13:42 33.45408 114.46999 35347 ft 431 kts 356°
2026-05-08 13:42 33.48400 114.47282 35226 ft 430 kts 356°
2026-05-08 13:43 33.54386 114.47851 35246 ft 431 kts 356°
2026-05-08 13:43 33.60384 114.48418 35230 ft 431 kts 356°
2026-05-08 13:44 33.66364 114.48910 35227 ft 430 kts 355°
2026-05-08 13:44 33.72352 114.49378 35227 ft 431 kts 356°
2026-05-08 13:45 33.78357 114.50030 35225 ft 432 kts 357°
2026-05-08 13:45 33.84306 114.50671 35237 ft 430 kts 356°
2026-05-08 13:46 33.90255 114.51232 35229 ft 428 kts 356°
2026-05-08 13:46 33.93260 114.51512 35100 ft 428 kts 356°
2026-05-08 13:46 33.96215 114.51788 35179 ft 430 kts 356°
2026-05-08 13:47 34.02220 114.52351 35212 ft 429 kts 356°
2026-05-08 13:47 34.08196 114.52917 35216 ft 429 kts 356°
2026-05-08 13:48 34.14144 114.53481 35216 ft 429 kts 356°
2026-05-08 13:48 34.20141 114.54050 35215 ft 428 kts 356°
2026-05-08 13:49 34.26060 114.54610 35210 ft 429 kts 356°
2026-05-08 13:49 34.32008 114.55175 35209 ft 429 kts 355°
2026-05-08 13:50 34.37987 114.55743 35206 ft 428 kts 355°
2026-05-08 13:50 34.43914 114.56308 35208 ft 427 kts 355°
2026-05-08 13:51 34.49847 114.56879 35201 ft 427 kts 355°
2026-05-08 13:51 34.55754 114.57455 35203 ft 426 kts 355°
2026-05-08 13:52 34.61700 114.58032 35200 ft 426 kts 355°
2026-05-08 13:52 34.64641 114.58319 35362 ft 426 kts 355°
2026-05-08 13:52 34.67589 114.58608 35251 ft 424 kts 355°
2026-05-08 13:53 34.73473 114.59179 35201 ft 423 kts 355°
2026-05-08 13:53 34.79367 114.59755 35190 ft 423 kts 355°
2026-05-08 13:54 34.85252 114.60329 35189 ft 422 kts 355°
2026-05-08 13:54 34.91105 114.60902 35186 ft 423 kts 355°
2026-05-08 13:55 34.96984 114.61474 35181 ft 424 kts 355°
2026-05-08 13:56 35.05803 114.62341 35179 ft 421 kts 354°
2026-05-08 13:56 35.11675 114.62917 35174 ft 419 kts 354°
2026-05-08 13:57 35.15515 114.63293 35169 ft 420 kts 354°
2026-05-08 13:57 35.20613 114.63785 35169 ft 420 kts 354°
2026-05-08 13:58 35.24572 114.64168 35165 ft 420 kts 354°
2026-05-08 13:59 35.30429 114.64734 35165 ft 421 kts 354°
2026-05-08 13:59 35.36258 114.65292 35159 ft 420 kts 354°
2026-05-08 14:00 35.42081 114.65845 35158 ft 420 kts 354°
2026-05-08 14:00 35.47927 114.66398 35156 ft 420 kts 354°
2026-05-08 14:01 35.53735 114.66949 35153 ft 418 kts 354°
2026-05-08 14:01 35.57468 114.67306 35147 ft 419 kts 354°
2026-05-08 14:02 35.60870 114.67628 35149 ft 419 kts 354°
2026-05-08 14:02 35.64648 114.67989 35148 ft 418 kts 354°
2026-05-08 14:04 35.76263 114.69094 35146 ft 418 kts 354°
2026-05-08 14:04 35.86859 114.70107 35140 ft 418 kts 354°
2026-05-08 14:05 35.92677 114.70666 35138 ft 418 kts 354°
2026-05-08 14:05 35.98452 114.71221 35134 ft 417 kts 354°
2026-05-08 14:06 36.04255 114.71779 35132 ft 417 kts 354°
2026-05-08 14:06 36.10053 114.72340 35126 ft 416 kts 354°
2026-05-08 14:07 36.15810 114.72903 35129 ft 416 kts 354°
2026-05-08 14:07 36.21600 114.73467 35118 ft 416 kts 354°
2026-05-08 14:08 36.27353 114.74032 35125 ft 416 kts 354°
2026-05-08 14:08 36.33166 114.74893 35120 ft 423 kts 360°
2026-05-08 14:09 36.38943 114.76598 35116 ft 432 kts
2026-05-08 14:09 36.44635 114.79198 35109 ft 441 kts 13°
2026-05-08 14:10 36.50212 114.82399 35100 ft 442 kts 14°
2026-05-08 14:10 36.55774 114.85648 35006 ft 442 kts 14°
2026-05-08 14:11 36.61330 114.88879 35065 ft 443 kts 14°
2026-05-08 14:11 36.66913 114.92123 35082 ft 442 kts 14°
2026-05-08 14:12 36.72494 114.95371 35076 ft 441 kts 14°
2026-05-08 14:12 36.78061 114.98615 35087 ft 441 kts 15°
2026-05-08 14:13 36.83625 115.01865 35067 ft 442 kts 14°
2026-05-08 14:13 36.89184 115.05119 35067 ft 442 kts 15°
2026-05-08 14:14 36.94730 115.08366 35075 ft 442 kts 15°
2026-05-08 14:14 37.00301 115.11636 35070 ft 441 kts 14°
2026-05-08 14:15 37.05965 115.14954 35064 ft 453 kts 15°
2026-05-08 14:15 37.11726 115.18343 35072 ft 462 kts 15°
2026-05-08 14:16 37.17613 115.21812 35061 ft 470 kts 15°
2026-05-08 14:16 37.23566 115.25337 35066 ft 472 kts 15°
2026-05-08 14:17 37.29457 115.28828 35084 ft 472 kts 16°
2026-05-08 14:17 37.35407 115.32358 35054 ft 473 kts 16°
2026-05-08 14:18 37.41335 115.35883 35063 ft 472 kts 16°
2026-05-08 14:18 37.47301 115.39430 35050 ft 473 kts 16°
2026-05-08 14:19 37.53254 115.42981 35057 ft 473 kts 16°
2026-05-08 14:19 37.59206 115.46538 35049 ft 472 kts 16°
2026-05-08 14:20 37.65163 115.50103 35054 ft 472 kts 16°
2026-05-08 14:20 37.71101 115.53661 35068 ft 471 kts 17°
2026-05-08 14:21 37.77135 115.56647 35047 ft 461 kts
2026-05-08 14:21 37.83338 115.58152 35049 ft 448 kts 356°
2026-05-08 14:22 37.89481 115.58240 35046 ft 440 kts 348°
2026-05-08 14:22 37.95602 115.57773 35053 ft 440 kts 348°
2026-05-08 14:23 38.01690 115.57293 35043 ft 440 kts 349°
2026-05-08 14:23 38.07805 115.56835 35026 ft 440 kts 349°
2026-05-08 14:24 38.13965 115.56509 35017 ft 440 kts 349°
2026-05-08 14:24 38.20013 115.56093 34788 ft 431 kts 349°
2026-05-08 14:24 38.22998 115.55882 33780 ft 428 kts 350°
2026-05-08 14:25 38.25999 115.56016 31929 ft 449 kts
2026-05-08 14:25 38.29063 115.56998 29812 ft 470 kts 15°
2026-05-08 14:25 38.32036 115.58704 27711 ft 480 kts 21°
2026-05-08 14:25 38.34987 115.60568 25642 ft 482 kts 22°
2026-05-08 14:26 38.37958 115.62476 23657 ft 479 kts 23°
2026-05-08 14:26 38.40890 115.64357 22460 ft 470 kts 23°
2026-05-08 14:26 38.43818 115.66227 21957 ft 466 kts 24°
2026-05-08 14:26 38.46710 115.68063 21599 ft 463 kts 24°
2026-05-08 14:27 38.49578 115.69876 21301 ft 460 kts 24°
2026-05-08 14:27 38.52445 115.71687 20846 ft 452 kts 24°
2026-05-08 14:27 38.55244 115.73455 20100 ft 445 kts 24°
2026-05-08 14:27 38.57994 115.75193 19530 ft 440 kts 24°
2026-05-08 14:28 38.60720 115.76918 18994 ft 441 kts 24°
2026-05-08 14:28 38.63432 115.78637 18467 ft 434 kts 24°
2026-05-08 14:28 38.66062 115.80552 17889 ft 433 kts 31°
2026-05-08 14:28 38.68486 115.82841 17641 ft 435 kts 36°
2026-05-08 14:29 38.70834 115.85320 17633 ft 437 kts 37°
2026-05-08 14:29 38.73145 115.87808 17626 ft 438 kts 37°
2026-05-08 14:29 38.75464 115.90318 17627 ft 436 kts 37°
2026-05-08 14:29 38.77784 115.92828 17631 ft 436 kts 37°
2026-05-08 14:30 38.80101 115.95332 17622 ft 436 kts 37°
2026-05-08 14:30 38.82429 115.97845 17630 ft 436 kts 37°
2026-05-08 14:30 38.84743 116.00344 17628 ft 436 kts 37°
2026-05-08 14:30 38.87058 116.02847 17628 ft 436 kts 37°
2026-05-08 14:31 38.89383 116.05365 17627 ft 436 kts 37°
2026-05-08 14:31 38.91708 116.07883 17625 ft 436 kts 37°
2026-05-08 14:31 38.94029 116.10400 17620 ft 436 kts 36°
2026-05-08 14:32 38.98679 116.15445 17610 ft 437 kts 36°
2026-05-08 14:32 39.01016 116.17954 17606 ft 435 kts 34°
2026-05-08 14:32 39.03638 116.19797 17584 ft 426 kts 14°
2026-05-08 14:32 39.06521 116.20260 17603 ft 420 kts 355°
2026-05-08 14:33 39.09443 116.19765 17621 ft 418 kts 348°
2026-05-08 14:33 39.12295 116.19108 17620 ft 419 kts 348°
2026-05-08 14:33 39.15166 116.18485 17622 ft 419 kts 349°
2026-05-08 14:33 39.18071 116.17921 17621 ft 420 kts 350°
2026-05-08 14:34 39.20972 116.17409 17620 ft 420 kts 351°
2026-05-08 14:34 39.23859 116.16930 17622 ft 420 kts 351°
2026-05-08 14:34 39.26762 116.16468 17628 ft 419 kts 351°
2026-05-08 14:34 39.29640 116.16020 17631 ft 419 kts 351°
2026-05-08 14:35 39.32529 116.15577 17628 ft 419 kts 351°
2026-05-08 14:35 39.35458 116.15128 17628 ft 420 kts 351°
2026-05-08 14:35 39.38356 116.14687 17635 ft 420 kts 351°
2026-05-08 14:35 39.41295 116.14240 17637 ft 420 kts 351°
2026-05-08 14:36 39.44202 116.13796 17638 ft 420 kts 351°
2026-05-08 14:36 39.47121 116.13351 17638 ft 420 kts 351°
2026-05-08 14:36 39.50008 116.12909 17637 ft 420 kts 351°
2026-05-08 14:36 39.52939 116.12462 17643 ft 420 kts 351°
2026-05-08 14:37 39.55826 116.12022 17637 ft 420 kts 351°
2026-05-08 14:37 39.58739 116.11578 17634 ft 420 kts 351°
2026-05-08 14:37 39.61645 116.11134 17639 ft 420 kts 351°
2026-05-08 14:37 39.64559 116.10686 17638 ft 420 kts 351°
2026-05-08 14:38 39.67456 116.10242 17644 ft 420 kts 351°
2026-05-08 14:38 39.70363 116.09795 17641 ft 420 kts 351°
2026-05-08 14:38 39.73275 116.09347 17641 ft 421 kts 351°
2026-05-08 14:38 39.76203 116.08896 17637 ft 422 kts 351°
2026-05-08 14:39 39.79129 116.08443 17640 ft 422 kts 351°
2026-05-08 14:39 39.82027 116.07996 17644 ft 423 kts 351°
2026-05-08 14:39 39.84972 116.07542 17644 ft 422 kts 351°
2026-05-08 14:39 39.87872 116.07097 17651 ft 422 kts 351°
2026-05-08 14:40 39.90802 116.06644 17648 ft 422 kts 351°
2026-05-08 14:40 39.93709 116.06193 17650 ft 422 kts 351°
2026-05-08 14:40 39.96631 116.05739 17652 ft 421 kts 351°
2026-05-08 14:40 39.98581 116.05436 17655 ft 421 kts 351°
2026-05-08 14:41 40.02484 116.04829 17649 ft 421 kts 351°
2026-05-08 14:41 40.05399 116.04377 17658 ft 422 kts 351°
2026-05-08 14:41 40.08298 116.03926 17665 ft 422 kts 351°
2026-05-08 14:41 40.11223 116.03472 17663 ft 421 kts 351°
2026-05-08 14:42 40.14117 116.03020 17667 ft 422 kts 351°
2026-05-08 14:42 40.17040 116.02522 17665 ft 421 kts 347°
2026-05-08 14:42 40.19736 116.01188 17655 ft 418 kts 327°
2026-05-08 14:42 40.21850 115.98586 17682 ft 418 kts 306°
2026-05-08 14:43 40.23330 115.95341 17669 ft 409 kts 302°
2026-05-08 14:43 40.25076 115.92524 16882 ft 404 kts 320°
2026-05-08 14:43 40.27492 115.90756 15742 ft 397 kts 342°
2026-05-08 14:43 40.30191 115.90385 14501 ft 395 kts
2026-05-08 14:44 40.32793 115.91437 13149 ft 398 kts 25°
2026-05-08 14:44 40.35060 115.93446 11885 ft 401 kts 36°
2026-05-08 14:44 40.37100 115.95985 11015 ft 402 kts 45°
2026-05-08 14:44 40.38759 115.98878 10496 ft 398 kts 56°
2026-05-08 14:45 40.39939 116.02140 10210 ft 389 kts 68°
2026-05-08 14:45 40.40538 116.05542 10059 ft 376 kts 82°
2026-05-08 14:45 40.40596 116.08917 9868 ft 365 kts 90°
2026-05-08 14:45 40.40488 116.12217 9490 ft 359 kts 91°
2026-05-08 14:46 40.40387 116.15433 9136 ft 353 kts 91°
2026-05-08 14:46 40.40358 116.18623 8803 ft 347 kts 89°
2026-05-08 14:46 40.40382 116.21769 8377 ft 336 kts 89°
2026-05-08 14:46 40.40419 116.24778 7952 ft 323 kts 89°
2026-05-08 14:47 40.40453 116.27659 7592 ft 309 kts 90°
2026-05-08 14:47 40.40483 116.30381 7265 ft 297 kts 90°
2026-05-08 14:47 40.40507 116.33102 6942 ft 295 kts 91°
2026-05-08 14:47 40.40530 116.35796 6659 ft 291 kts 91°
2026-05-08 14:48 40.40550 116.38425 6589 ft 291 kts 91°
2026-05-08 14:48 40.40568 116.41099 6582 ft 291 kts 91°
2026-05-08 14:48 40.40587 116.43738 6582 ft 291 kts 91°
2026-05-08 14:48 40.40606 116.46399 6580 ft 290 kts 91°
2026-05-08 14:49 40.40628 116.49040 6300 ft 288 kts 92°
2026-05-08 14:49 40.40648 116.51666 5912 ft 287 kts 92°
2026-05-08 14:49 40.40628 116.54254 5571 ft 283 kts 100°
2026-05-08 14:49 40.40002 116.56627 5213 ft 271 kts 128°
2026-05-08 14:50 40.38657 116.58250 4944 ft 256 kts 157°
2026-05-08 14:50 40.37013 116.58724 4908 ft 234 kts 185°
2026-05-08 14:50 40.35472 116.58421 4909 ft 218 kts 193°
2026-05-08 14:50 40.34025 116.58006 4885 ft 202 kts 192°
2026-05-08 14:51 40.32686 116.57784 4843 ft 182 kts 184°
2026-05-08 14:51 40.31503 116.57806 4724 ft 158 kts 179°
2026-05-08 14:51 40.30462 116.57927 4466 ft 145 kts 178°
2026-05-08 14:51 40.29502 116.58064 4237 ft 136 kts 177°
2026-05-08 14:52 40.28558 116.58203 4050 ft 140 kts 176°
2026-05-08 14:52 40.26566 116.58507 3656 ft 145 kts 175°
2026-05-08 14:52 40.25548 116.58666 3443 ft 145 kts 175°
2026-05-08 14:53 40.24560 116.58823 3231 ft 145 kts 174°
2026-05-08 14:53 40.23563 116.58981 3032 ft 144 kts 174°
2026-05-08 14:53 40.22774 116.59105 2873 ft 144 kts 174°
2026-05-08 14:53 40.22089 116.59214 2740 ft 143 kts 174°
2026-05-08 14:54 40.20677 116.59437 2460 ft 143 kts 173°
2026-05-08 14:54 40.19704 116.59591 2268 ft 142 kts 173°
2026-05-08 14:54 40.18710 116.59747 2068 ft 142 kts 173°
2026-05-08 14:54 40.17733 116.59901 1874 ft 141 kts 173°
2026-05-08 14:55 40.16836 116.60043 1690 ft 141 kts 173°
2026-05-08 14:55 40.15816 116.60204 1479 ft 140 kts 173°
2026-05-08 14:55 40.14853 116.60356 1282 ft 140 kts 174°
2026-05-08 14:55 40.13927 116.60756 1129 ft 139 kts 168°
2026-05-08 14:56 40.12980 116.60555 935 ft 139 kts 198°
2026-05-08 14:56 40.12054 116.60658 765 ft 141 kts 156°
2026-05-08 14:56 40.11124 116.60970 530 ft 138 kts 174°
2026-05-08 14:56 40.10178 116.61085 298 ft 134 kts 172°
2026-05-08 14:57 40.09259 116.61232 139 ft 130 kts 172°
2026-05-08 14:57 40.08462 116.61357 126 ft 90 kts 172°
2026-05-08 14:57 40.08008 116.61427 126 ft 40 kts 173°
2026-05-08 14:57 40.07759 116.61397 126 ft 26 kts 202°
2026-05-08 14:58 40.07641 116.61334 126 ft 17 kts 203°
2026-05-08 14:58 40.07527 116.61273 126 ft 17 kts 194°
2026-05-08 14:58 40.07409 116.61284 126 ft 17 kts 173°
2026-05-08 14:58 40.07291 116.61304 126 ft 16 kts 173°
2026-05-08 14:59 40.07173 116.61321 126 ft 16 kts 174°
2026-05-08 14:59 40.06938 116.61359 126 ft 16 kts 173°
2026-05-08 14:59 40.06824 116.61375 126 ft 16 kts 173°
2026-05-08 15:00 40.06710 116.61394 126 ft 16 kts 172°
2026-05-08 15:00 40.06596 116.61409 126 ft 16 kts 173°
2026-05-08 15:00 40.06481 116.61428 126 ft 16 kts 171°
2026-05-08 15:00 40.06380 116.61434 126 ft 12 kts 221°
2026-05-08 15:01 40.06361 116.61324 126 ft 13 kts 263°
2026-05-08 15:01 40.06350 116.61201 126 ft 13 kts 262°
2026-05-08 15:01 40.06338 116.61075 126 ft 14 kts 263°
2026-05-08 15:01 40.06325 116.60940 126 ft 15 kts 262°
2026-05-08 15:02 40.06313 116.60801 126 ft 15 kts 263°
2026-05-08 15:02 40.06298 116.60658 126 ft 16 kts 261°
2026-05-08 15:02 40.06280 116.60513 126 ft 15 kts 229°
2026-05-08 15:02 40.06178 116.60523 126 ft 15 kts 174°
2026-05-08 15:03 40.06073 116.60538 126 ft 15 kts 173°
2026-05-08 15:03 40.05965 116.60555 126 ft 15 kts 172°
2026-05-08 15:03 40.05857 116.60573 126 ft 15 kts 172°
2026-05-08 15:03 40.05748 116.60590 126 ft 15 kts 174°
2026-05-08 15:04 40.05642 116.60603 126 ft 10 kts 171°
2026-05-08 15:04 40.05593 116.60603 126 ft 7 kts 185°
2026-05-08 15:04 40.05541 116.60583 126 ft 8 kts 205°
2026-05-08 15:04 40.05499 116.60558 126 ft 4 kts 182°
2026-05-08 15:05 40.05471 116.60588 126 ft 6 kts 130°
2026-05-08 15:05 40.05442 116.60633 126 ft 4 kts 130°
2026-05-08 15:05 40.05431 116.60649 126 ft 0 kts 129°